Location: Treviso
(45.6669°N, 12.2430°E)
Time: 01:25:56
(UTC+01:00)

ISS - Pass Details

Date: 05 March 2026
Orbit: 416 x 426 km, 51.6° (Epoch: 9 March)

Event Time Altitude Azimuth Distance (km) Brightness Sun altitude
Exits shadow 04:32:28 20° 141° (SE) 1,017 -1.6 -23.4°
Drops below altitude 10° 04:33:40 10° 135° (SE) 1,486 -0.6 -23.2°
Sets 04:35:46 0° 131° (SE) 2,345 0.5 -22.8°
